Weather History for KMFD - June, 2014

Change the Weather History Date:

Wednesday, June 4, 2014

  Actual Average Record
Temperature  
Mean Temperature 63 °F 64 °F  
Max Temperature 71 °F 75 °F 97 °F (1934)
Min Temperature 54 °F 54 °F 36 °F (1946)
Degree Days  
Heating Degree Days 2 3  
Month to date heating degree days 2 15  
Since 1 June heating degree days 2 15  
Since 1 July heating degree days 6693 6232  
Cooling Degree Days 0 3  
Month to date cooling degree days 21 12  
Year to date cooling degree days 84 58  
Since 1 June cooling degree days 21 12  
Growing Degree Days 13 (Base 50)    
Moisture  
Dew Point 57 °F    
Average Humidity 79    
Maximum Humidity 100    
Minimum Humidity 57    
Precipitation  
Precipitation 1.02 in 0.16 in 1.02 in (2014)
Month to date precipitation 1.15 0.66  
Year to date precipitation 17.48 17.99  
Snow  
Snow 0.00 in 0.00 in - ()
Month to date snowfall 0.0 0.0  
Since 1 June snowfall 0.0 0.0  
Since 1 July snowfall 65.4 48.3  
Snow Depth 0.00 in    
Sea Level Pressure  
Sea Level Pressure 29.83 in    
Wind  
Wind Speed 7 mph (NE)    
Max Wind Speed 16 mph    
Max Gust Speed 22 mph    
Visibility 6 miles    
Events Rain    
T = Trace of Precipitation, MM = Missing Value Source: NWS Daily Summary

Daily Weather History Graph

Daily Weather History Graph

Search for Another Location

Airport or City:

Trip Planner

Search our weather history database for the weather conditions in past years. The results will help you decide how hot, cold, wet, or windy it might be!

Date:

Astronomy

Jun. 04, 2014 Rise Set
Actual Time 5:59 AM EDT 8:57 PM EDT
Civil Twilight 5:26 AM EDT 9:30 PM EDT
Nautical Twilight 4:45 AM EDT 10:12 PM EDT
Astronomical Twilight 3:56 AM EDT 11:01 PM EDT
Moon 12:19 PM EDT (6/4) 12:54 AM EDT (6/4)
Length of Visible Light 16h 03m
Length of Day
14h 57m
Waxing Crescent, 39% of the Moon is Illuminated
Jun 4
Waxing Crescent
Jun 5
First Quarter
Jun 13
Full
Jun 19
Last Quarter
Jun 27
New

Hourly Weather History & Observations

Time (EDT) Temp. Dew Point Humidity Pressure Visibility Wind Dir Wind Speed Gust Speed Precip Events Conditions
12:52 AM 61.0 °F 48.9 °F 64% 29.94 in 10.0 mi NNW 3.5 mph - N/A   Clear
1:52 AM 60.8 °F 48.2 °F 63% 29.96 in 10.0 mi NNW 3.5 mph - N/A   Clear
2:52 AM 59.0 °F 51.8 °F 77% 29.97 in 10.0 mi Calm Calm - N/A   Clear
3:52 AM 57.0 °F 50.0 °F 77% 29.94 in 10.0 mi Calm Calm - N/A   Clear
4:52 AM 55.9 °F 50.0 °F 80% 29.93 in 10.0 mi Calm Calm - N/A   Clear
5:52 AM 55.9 °F 52.0 °F 87% 29.93 in 10.0 mi Calm Calm - N/A   Clear
6:52 AM 57.0 °F 54.0 °F 89% 29.93 in 10.0 mi Calm Calm - N/A   Clear
7:52 AM 62.1 °F 55.9 °F 80% 29.93 in 10.0 mi ESE 5.8 mph - N/A   Clear
8:52 AM 64.0 °F 55.9 °F 75% 29.92 in 10.0 mi ESE 6.9 mph - N/A   Clear
9:52 AM 66.9 °F 55.9 °F 68% 29.92 in 10.0 mi SSE 6.9 mph - N/A   Clear
10:52 AM 71.6 °F 55.4 °F 57% 29.91 in 10.0 mi ESE 8.1 mph - N/A   Clear
11:52 AM 70.0 °F 55.0 °F 59% 29.86 in 10.0 mi SE 9.2 mph - N/A   Mostly Cloudy
12:52 PM 69.1 °F 57.9 °F 68% 29.86 in 10.0 mi ESE 4.6 mph - N/A   Overcast
1:09 PM 66.2 °F 60.8 °F 83% 29.90 in 3.0 mi West 3.5 mph - 0.02 in Rain Heavy Rain
1:52 PM 64.0 °F 59.0 °F 84% 29.87 in 9.0 mi NE 8.1 mph - 0.10 in Rain Light Rain
2:42 PM 62.6 °F 60.8 °F 94% 29.85 in 2.5 mi NE 6.9 mph - 0.08 in Rain Rain
2:52 PM 63.0 °F 61.0 °F 93% 29.83 in 2.5 mi NE 9.2 mph - 0.11 in Rain Heavy Rain
3:08 PM 62.6 °F 60.8 °F 94% 29.82 in 4.0 mi ENE 13.8 mph - 0.04 in Rain Rain
3:38 PM 60.8 °F 60.8 °F 100% 29.81 in 3.0 mi ENE 9.2 mph - 0.10 in Rain Rain
3:45 PM 60.8 °F 60.8 °F 100% 29.82 in 2.5 mi ENE 4.6 mph - 0.13 in Rain Rain
3:52 PM 61.0 °F 60.1 °F 97% 29.80 in 2.0 mi ENE 8.1 mph - 0.17 in Rain Heavy Rain
4:00 PM 60.8 °F 60.8 °F 100% 29.80 in 3.0 mi North 6.9 mph - 0.03 in Rain Rain
4:22 PM 60.8 °F 60.8 °F 100% 29.79 in 4.0 mi NE 11.5 mph - 0.07 in Rain Light Rain
4:29 PM 60.8 °F 60.8 °F 100% 29.78 in 2.5 mi NE 10.4 mph - 0.09 in Rain Rain
4:52 PM 60.1 °F 60.1 °F 100% 29.78 in 2.5 mi NE 9.2 mph - 0.14 in Rain Light Rain
5:22 PM 60.8 °F 60.8 °F 100% 29.77 in 3.0 mi NNE 13.8 mph - 0.04 in Rain Light Rain
5:27 PM 60.8 °F 60.8 °F 100% 29.77 in 3.0 mi NE 11.5 mph - 0.04 in Rain Light Rain
5:34 PM 60.8 °F 60.8 °F 100% 29.77 in 2.0 mi NE 10.4 mph - 0.05 in Rain Rain
5:43 PM 60.8 °F 59.0 °F 94% 29.77 in 1.2 mi NE 10.4 mph 19.6 mph 0.08 in Rain Rain
5:52 PM 59.0 °F 59.0 °F 100% 29.77 in 1.2 mi NNE 11.5 mph - 0.14 in Rain Heavy Rain
6:19 PM 59.0 °F 59.0 °F 100% 29.76 in 2.0 mi NNE 11.5 mph - 0.12 in Rain Rain
6:44 PM 59.0 °F 59.0 °F 100% 29.76 in 1.8 mi NE 15.0 mph 21.9 mph 0.19 in Rain Rain
6:47 PM 59.0 °F 59.0 °F 100% 29.76 in 2.0 mi NE 16.1 mph 21.9 mph 0.20 in Rain Rain
6:52 PM 59.0 °F 59.0 °F 100% 29.76 in 2.5 mi NE 12.7 mph - 0.21 in Rain Light Rain
7:01 PM 59.0 °F 59.0 °F 100% 29.77 in 3.0 mi NE 10.4 mph - 0.00 in Rain Light Rain
7:10 PM 59.0 °F 59.0 °F 100% 29.77 in 2.5 mi NNE 10.4 mph - 0.02 in Rain Light Rain
7:29 PM 60.8 °F 59.0 °F 94% 29.76 in 3.0 mi NE 13.8 mph - 0.04 in Rain Light Rain
7:40 PM 60.8 °F 59.0 °F 94% 29.77 in 2.5 mi NNE 13.8 mph - 0.05 in Rain Light Rain
7:52 PM 60.1 °F 59.0 °F 96% 29.76 in 2.0 mi NNE 12.7 mph 19.6 mph 0.06 in Rain Light Rain
8:10 PM 59.0 °F 59.0 °F 100% 29.78 in 3.0 mi NE 12.7 mph 19.6 mph 0.02 in Rain Light Rain
8:49 PM 59.0 °F 59.0 °F 100% 29.78 in 5.0 mi North 11.5 mph 19.6 mph 0.05 in Rain Light Rain
8:52 PM 59.0 °F 57.9 °F 96% 29.77 in 5.0 mi NNE 10.4 mph - 0.06 in Rain Light Rain
9:52 PM 57.0 °F 55.9 °F 96% 29.76 in 4.0 mi NNE 12.7 mph 21.9 mph 0.02 in Rain Light Rain
10:19 PM 57.2 °F 55.4 °F 94% 29.79 in 10.0 mi NE 9.2 mph - 0.01 in   Overcast
10:26 PM 57.2 °F 55.4 °F 94% 29.80 in 10.0 mi North 9.2 mph - 0.01 in   Overcast
10:52 PM 57.0 °F 55.0 °F 93% 29.80 in 10.0 mi North 13.8 mph - 0.01 in   Overcast
10:59 PM 55.4 °F 55.4 °F 100% 29.81 in 10.0 mi North 12.7 mph - N/A   Overcast
11:17 PM 57.2 °F 55.4 °F 94% 29.82 in 10.0 mi North 11.5 mph - N/A   Overcast
11:52 PM 57.0 °F 55.0 °F 93% 29.80 in 10.0 mi NE 6.9 mph - N/A   Overcast